#timestamp,LO_Frequency,Hit,StdDev 
1513684815.4,286047007.5,Y
1513684835.3,286047001.0,P
1513684855.1,286046999.8,N
1513684875.8,286047000.3,N
1513684895.7,286047000.7,N
1513684915.5,286047001.7,N
1513684935.3,286047002.2,N
1513684955.2,286047005.2,Y
1513684975.9,286047003.4,P
1513684995.7,286047000.2,N
1513685015.6,286047000.9,N
1513685035.4,286047002.4,N
1513685055.2,286046998.7,N
1513685075.1,286046998.1,N
1513685076.0,286046998.1,N
1513685095.8,286047004.0,N
1513685115.6,286047005.6,N
1513685135.4,286047005.1,N
1513685155.3,286047007.9,Y
1513685175.1,286047008.4,P
1513685195.8,286047010.3,P
1513685215.7,286047006.4,N
1513685235.5,286047006.4,N
1513685255.3,286047003.5,N
1513685275.2,286046998.9,N
1513685295.9,286047000.5,N
1513685315.7,286047002.6,N
1513685335.6,286046998.2,N
1513685355.4,286047004.3,N
1513685375.2,286047003.6,N
1513685395.1,286047002.7,N
1513685396.0,286047002.7,N
1513685415.8,286047001.8,N
1513685435.6,286047002.8,N
1513685455.5,286047002.6,N
1513685475.3,286047002.2,N
1513685495.1,286047004.2,N
1513685515.8,286047006.8,N
1513685535.7,286047004.9,N
1513685555.5,286047001.7,N
1513685575.3,286047003.8,N
1513685595.2,286047002.7,N
1513685615.9,286047002.8,N
1513685635.7,286047002.4,N
1513685655.6,286046999.8,N
1513685675.4,286046997.2,N
1513685695.2,286046997.6,N
1513685715.1,286046994.9,N
1513685716.0,286046994.9,N
1513685735.8,286046998.9,N
1513685755.6,286047000.7,N
1513685775.5,286047001.4,N
1513685795.3,286047001.9,N
1513685815.1,286047001.5,N
1513685835.8,286047003.2,N
1513685855.7,286047003.5,N
1513685875.5,286047004.4,N
1513685895.3,286047000.8,N
1513685915.2,286046999.5,N
1513685935.9,286046999.2,N
1513685955.7,286046998.3,N
1513685975.6,286047002.8,N
1513685995.4,286047004.1,N
1513686015.2,286047004.3,N
1513686035.1,286047001.8,N
1513686036.0,286047001.8,N
1513686055.8,286047000.1,N
1513686075.6,286047002.3,N
1513686095.5,286047003.0,N
1513686115.3,286047002.1,N
1513686135.1,286047005.6,N
1513686155.9,286047009.1,Y
1513686175.7,286047009.1,P
1513686195.5,286047008.1,N
1513686215.3,286047008.4,N
1513686235.2,286047007.8,N
1513686255.0,286047011.0,Y
1513686255.9,286047011.0,P
1513686275.8,286047006.6,P
1513686295.6,286047005.2,N
1513686315.4,286047003.4,N
1513686335.2,286047005.7,N
1513686355.1,286047003.2,N
1513686356.0,286047003.2,N
1513686375.8,286047005.6,N
1513686395.6,286047004.1,N
1513686415.5,286047002.2,N
1513686435.3,286046999.5,N
1513686455.1,286046994.0,N
1513686475.9,286046994.3,N
1513686495.7,286046990.2,N
1513686515.5,286046992.1,N
1513686535.4,286046993.9,N
1513686555.2,286046994.3,N
1513686575.0,286046990.4,N
1513686575.9,286046990.4,N
1513686595.7,286046991.4,N
1513686615.6,286046989.2,N
1513686635.4,286046988.3,N
1513686655.2,286046983.8,N
1513686675.1,286046982.7,N
1513686676.0,286046982.7,N
1513686695.8,286046984.4,N
1513686715.6,286046984.5,N
1513686735.5,286046982.9,N
1513686755.3,286046983.5,N
1513686775.1,286046984.9,N
1513686795.9,286046985.2,N
1513686815.7,286046979.4,N
1513686835.5,286046980.8,N
1513686855.4,286046984.1,N
1513686875.2,286046985.5,N
1513686895.0,286046982.1,N
1513686895.9,286046982.1,N
1513686915.8,286046982.8,N
1513686935.6,286046984.7,N
1513686955.4,286046984.6,N
1513686975.3,286046984.1,Y
1513686995.1,286046997.2,P
1513686996.0,286046997.2,N
1513687015.8,286046996.3,N
1513687035.6,286046994.5,N
1513687055.5,286046995.9,N
1513687075.3,286046993.6,N
1513687095.1,286046993.7,N
1513687115.9,286046992.9,N
1513687135.7,286046987.2,Y
1513687155.5,286046995.4,P
1513687175.4,286046997.4,P
1513687195.2,286046995.2,P
1513687215.0,286046992.1,Y
1513687216.0,286046992.1,P
1513687235.8,286046997.9,N
1513687255.6,286046994.2,N
1513687275.5,286046991.7,Y
1513687295.3,286046998.5,P
1513687315.1,286047000.4,N
1513687335.8,286046999.8,N
1513687355.7,286046998.5,N
1513687375.5,286046997.1,N
1513687395.3,286046997.0,N
1513687415.2,286046997.8,N
1513687435.9,286046993.3,Y
1513687455.7,286046999.5,P
1513687475.6,286046999.2,N
1513687495.4,286046996.5,P
1513687515.2,286046999.9,N
1513687535.1,286047003.9,Y
1513687536.0,286047003.9,P
1513687555.8,286047004.2,N
1513687575.6,286047003.1,N
1513687595.5,286047001.7,N
1513687615.3,286047005.5,N
1513687635.1,286047007.4,Y
1513687655.9,286047006.4,P
1513687675.7,286047010.2,P
1513687695.5,286047011.6,P
1513687715.4,286047014.3,Y
1513687735.2,286047008.3,P
1513687755.0,286047007.9,P
1513687755.9,286047007.9,P
1513687775.8,286047006.2,Y
1513687795.6,286047002.2,P
1513687815.4,286047002.4,N
1513687835.3,286047001.9,N
1513687855.1,286047004.1,N
1513687875.8,286047006.2,N
1513687895.7,286047008.2,Y
1513687915.5,286047005.4,P
1513687935.3,286047008.7,P
1513687955.2,286047008.7,P
1513687975.9,286047008.7,Y
1513687995.7,286046999.0,P
1513688015.6,286046994.9,N
1513688035.4,286046999.2,N
1513688055.2,286046995.2,N
1513688075.1,286046995.4,N
1513688076.0,286046995.4,N
1513688095.8,286046998.9,N
1513688115.6,286046997.4,N
1513688135.5,286046998.0,N
1513688155.3,286046997.0,N
1513688175.1,286046998.7,N
1513688195.9,286046994.1,N
1513688215.7,286046993.1,N
1513688235.5,286046990.1,Y
1513688255.4,286046991.8,P
1513688275.2,286046994.5,N
1513688295.0,286046994.2,N
1513688295.9,286046994.2,N
1513688315.8,286046992.0,Y
1513688335.6,286046999.6,P
1513688355.4,286046995.9,N
1513688375.3,286046997.5,N
1513688395.1,286046996.8,N
1513688396.0,286046996.8,N
